EW0538 Weather Reports


Display with metric or nautical units.
time (UTC)temp
F
wind
direction
speed
MPH
gust
MPH
rain 1hr
in
rain 24hr
in
rain mn
in
humidity
%
barometer
mb
20260508152958 54 192 0.0 3.0 0.00 0.00 0.00 39 1014.0
20260508151937 54 155 0.0 3.0 0.00 0.00 0.00 37 1014.3
20260508150919 53 231 1.0 2.0 0.00 0.00 0.00 39 1014.5
20260508145905 53 208 0.0 2.0 0.00 0.00 0.00 45 1014.7
20260508143754 50 179 0.0 0.0 0.00 0.00 0.00 45 1014.9
20260508142802 49 181 0.0 0.0 0.00 0.00 0.00 47 1015.0
20260508141742 47 193 0.0 1.0 0.00 0.00 0.00 50 1015.2
20260508140727 46 158 0.0 1.0 0.00 0.00 0.00 54 1015.3
20260508135748 45 124 0.0 0.0 0.00 0.00 0.00 55 1015.5
20260508134807 41 93 0.0 0.0 0.00 0.00 0.00 62 1015.5
20260508133803 39 91 0.0 0.0 0.00 0.00 0.00 64 1015.5
20260508132824 38 91 0.0 0.0 0.00 0.00 0.00 67 1015.5
20260508130645 36 91 0.0 0.0 0.00 0.00 0.00 71 1015.1
20260508125623 35 91 0.0 0.0 0.00 0.00 0.00 72 1015.0
20260508123456 33 91 0.0 0.0 0.00 0.00 0.00 72 1014.6
20260508122427 33 91 0.0 0.0 0.00 0.00 0.00 72 1014.6
20260508121416 33 91 0.0 0.0 0.00 0.00 0.00 71 1014.4
20260508115231 33 91 0.0 0.0 0.00 0.00 0.00 70 1013.9
20260508114222 34 91 0.0 0.0 0.00 0.00 0.00 70 1013.9
20260508112135 34 93 0.0 0.0 0.00 0.00 0.00 70 1013.7
20260508111126 34 92 0.0 0.0 0.00 0.00 0.00 69 1013.6
20260508110053 34 92 0.0 0.0 0.00 0.00 0.00 69 1013.4
20260508105055 35 92 0.0 0.0 0.00 0.00 0.00 69 1013.3
20260508104030 35 92 0.0 0.0 0.00 0.00 0.00 68 1013.2
20260508103040 35 92 0.0 0.0 0.00 0.00 0.00 68 1013.0
20260508102017 36 92 0.0 0.0 0.00 0.00 0.00 67 1012.9
20260508101012 36 92 0.0 0.0 0.00 0.00 0.00 68 1012.8
20260508095940 36 92 0.0 0.0 0.00 0.00 0.00 67 1012.7
20260508094940 36 92 0.0 0.0 0.00 0.00 0.00 67 1012.5
20260508093927 37 92 0.0 0.0 0.00 0.00 0.00 67 1012.5
20260508084857 37 148 0.0 0.0 0.00 0.00 0.00 90 1013.1
20260508083854 38 132 0.0 0.0 0.00 0.00 0.00 90 1013.1
20260508081746 38 132 0.0 0.0 0.00 0.00 0.00 89 1013.2
20260508080720 39 132 0.0 0.0 0.00 0.00 0.00 87 1013.1
20260508075700 40 133 0.0 0.0 0.00 0.00 0.00 86 1013.2
20260508074702 40 132 0.0 0.0 0.00 0.00 0.00 85 1013.2
20260508073716 41 132 0.0 0.0 0.00 0.00 0.00 83 1013.1
20260508071537 42 132 0.0 0.0 0.00 0.00 0.00 80 1013.3
20260508070534 42 133 0.0 0.0 0.00 0.00 0.00 82 1013.2
20260508065539 43 278 0.0 0.0 0.00 0.00 0.00 78 1013.3
20260508064540 44 278 0.0 0.0 0.00 0.00 0.00 76 1013.2
20260508061252 45 278 0.0 0.0 0.00 0.00 0.00 77 1013.3
20260508060314 44 148 0.0 0.0 0.00 0.00 0.00 77 1013.3
20260508055309 44 148 0.0 0.0 0.00 0.00 0.00 77 1013.3
20260508054313 44 148 0.0 0.0 0.00 0.00 0.00 78 1013.3
20260508052116 45 148 0.0 0.0 0.00 0.00 0.00 75 1013.4
20260508051050 46 148 0.0 0.0 0.00 0.00 0.00 72 1013.3
20260508050054 47 148 0.0 0.0 0.00 0.00 0.00 72 1013.4
20260508045032 47 148 0.0 0.0 0.00 0.00 0.00 69 1013.6
20260508044017 47 148 0.0 0.0 0.00 0.00 0.00 67 1013.5
20260508043015 47 49 0.0 0.0 0.00 0.00 0.00 67 1013.7
20260508042001 47 31 0.0 0.0 0.00 0.00 0.00 65 1013.4
20260508040941 47 32 0.0 0.0 0.00 0.00 0.00 67 1013.5
20260508035942 48 31 0.0 0.0 0.00 0.00 0.00 66 1013.5
20260508034935 49 32 0.0 0.0 0.00 0.00 0.00 63 1013.4
20260508033937 50 32 0.0 0.0 0.00 0.00 0.00 63 1013.4
20260508032957 51 141 0.0 0.0 0.00 0.00 0.00 62 1013.3
20260508031950 51 141 0.0 0.0 0.00 0.00 0.00 61 1013.1
20260508030917 52 141 0.0 0.0 0.00 0.00 0.00 58 1013.2
20260508025942 53 141 0.0 0.0 0.00 0.00 0.00 54 1012.9
20260508025000 54 141 0.0 0.0 0.00 0.00 0.00 51 1012.8
20260508023934 55 141 0.0 0.0 0.00 0.00 0.00 48 1012.7
20260508022939 56 145 0.0 0.0 0.00 0.00 0.00 48 1012.6
20260508022003 57 129 0.0 0.0 0.00 0.00 0.00 46 1012.6
20260508015914 59 351 0.0 2.0 0.00 0.00 0.00 40 1012.7
20260508014911 59 328 1.0 8.0 0.00 0.00 0.00 40 1012.6
20260508013840 60 336 4.0 9.0 0.00 0.00 0.00 39 1012.4
20260508012858 60 341 3.0 10.0 0.00 0.00 0.00 38 1012.4
20260508010801 61 357 3.0 9.0 0.00 0.00 0.00 36 1012.5
20260508005801 62 8 3.0 9.0 0.00 0.00 0.00 34 1012.3
20260508004806 62 4 2.0 15.0 0.00 0.00 0.00 33 1012.3
20260508003755 63 34 3.0 15.0 0.00 0.00 0.00 31 1012.4
20260508002810 63 342 4.0 9.0 0.00 0.00 0.00 30 1012.3
20260508001815 63 314 3.0 10.0 0.00 0.00 0.00 32 1012.2
20260508000825 64 354 3.0 13.0 0.00 0.00 0.00 31 1012.3
20260507234700 64 6 1.0 4.0 0.00 0.00 0.00 32 1012.1
20260507233635 64 20 1.0 6.0 0.00 0.00 0.00 31 1012.2
20260507232640 65 250 1.0 6.0 0.00 0.00 0.00 31 1012.4
20260507231631 65 25 0.0 0.0 0.00 0.00 0.00 30 1012.5
20260507230645 65 274 0.0 6.0 0.00 0.00 0.00 30 1012.6
20260507225705 65 4 1.0 1.0 0.00 0.00 0.00 32 1012.6
20260507224648 64 1 1.0 9.0 0.00 0.00 0.00 31 1012.7
20260507223701 64 47 2.0 7.0 0.00 0.00 0.00 33 1012.8
20260507222627 64 334 1.0 7.0 0.00 0.00 0.00 33 1012.9
20260507221608 64 324 2.0 7.0 0.00 0.00 0.00 33 1013.2
20260507220549 63 346 3.0 8.0 0.00 0.00 0.00 33 1013.4
20260507212254 65 321 3.0 10.0 0.00 0.00 0.00 30 1014.3
20260507211251 65 316 3.0 10.0 0.00 0.00 0.00 31 1014.6
20260507210223 65 27 1.0 5.0 0.00 0.00 0.00 31 1014.9
20260507205246 63 284 3.0 9.0 0.00 0.00 0.00 31 1015.3
20260507204217 62 33 2.0 9.0 0.00 0.00 0.00 32 1015.6
20260507203207 63 9 2.0 8.0 0.00 0.00 0.00 31 1015.9
20260507202214 64 266 0.0 5.0 0.00 0.00 0.00 31 1016.1
20260507201142 63 250 0.0 0.0 0.00 0.00 0.00 31 1016.3
20260507200133 63 243 1.0 4.0 0.00 0.00 0.00 32 1016.7
20260507195137 61 22 0.0 2.0 0.00 0.00 0.00 32 1016.8
20260507194104 61 170 0.0 0.0 0.00 0.00 0.00 32 1017.1
20260507193050 60 150 1.0 3.0 0.00 0.00 0.00 33 1017.3
20260507192109 59 28 1.0 6.0 0.00 0.00 0.00 34 1017.6
20260507191113 59 105 1.0 4.0 0.00 0.00 0.00 34 1017.9
20260507190123 58 146 0.0 2.0 0.00 0.00 0.00 34 1018.0
20260507185117 57 281 0.0 2.0 0.00 0.00 0.00 36 1018.4
20260507182941 56 294 0.0 0.0 0.00 0.00 0.00 36 1018.9
20260507180839 54 40 0.0 4.0 0.00 0.00 0.00 36 1019.4
20260507175847 54 253 0.0 5.0 0.00 0.00 0.00 37 1019.5
20260507173721 52 321 1.0 4.0 0.00 0.00 0.00 39 1019.9
20260507172718 52 358 1.0 6.0 0.00 0.00 0.00 38 1020.0
20260507171716 51 8 1.0 6.0 0.00 0.00 0.00 41 1020.2
20260507170653 50 331 1.0 5.0 0.00 0.00 0.00 41 1020.4
20260507165659 50 9 2.0 5.0 0.00 0.00 0.00 42 1020.4
20260507164649 50 351 3.0 7.0 0.00 0.00 0.00 42 1020.7
20260507163649 50 27 2.0 7.0 0.00 0.00 0.00 43 1020.9
20260507162637 49 353 2.0 7.0 0.00 0.00 0.00 44 1021.1
20260507160510 46 40 0.0 4.0 0.00 0.00 0.00 44 1021.4
20260507155514 45 293 0.0 4.0 0.00 0.00 0.00 44 1021.8
20260507154529 44 33 0.0 3.0 0.00 0.00 0.00 48 1022.1